GKION KBOS-KHXD

Flight info

Callsign GKION
Flight time N/A
Altitude 40000
Route SSOXS7 SSOXS Q167 RIFLE HEADI Q97 SAWED GUILD Q409 SESUE SOOOP
Aircraft C525/L-SDFGRWY/SB1

Departure

Time N/A
Airport Boston Logan International Airport (KBOS)

Arrival

Time 2026-04-20 17:20
Airport Hilton Head Airport (KHXD)
Time Latitude Longitude Altitude Speed Heading
2026-04-20 16:35 34.75206 -78.73642 40257 ft 335 kts 228°
2026-04-20 16:35 34.71451 -78.77124 40259 ft 336 kts 227°
2026-04-20 16:36 34.67697 -78.80602 40268 ft 337 kts 227°
2026-04-20 16:36 34.63940 -78.84079 40262 ft 337 kts 227°
2026-04-20 16:37 34.60188 -78.87547 40258 ft 338 kts 228°
2026-04-20 16:37 34.56427 -78.91019 40268 ft 338 kts 227°
2026-04-20 16:38 34.52649 -78.94504 40276 ft 339 kts 228°
2026-04-20 16:38 34.48877 -78.97977 40282 ft 339 kts 227°
2026-04-20 16:39 34.45081 -79.01461 40276 ft 340 kts 227°
2026-04-20 16:39 34.41276 -79.04901 40266 ft 342 kts 226°
2026-04-20 16:40 34.37339 -79.08260 40271 ft 343 kts 225°
2026-04-20 16:40 34.33403 -79.11576 40278 ft 343 kts 226°
2026-04-20 16:41 34.29485 -79.14909 40275 ft 343 kts 226°
2026-04-20 16:41 34.25568 -79.18263 40278 ft 342 kts 227°
2026-04-20 16:42 34.21817 -79.21834 40285 ft 338 kts 230°
2026-04-20 16:42 34.18228 -79.25508 40292 ft 338 kts 231°
2026-04-20 16:43 34.14579 -79.29191 40297 ft 338 kts 230°
2026-04-20 16:43 34.10915 -79.32801 40290 ft 339 kts 230°
2026-04-20 16:44 34.07256 -79.36378 40293 ft 339 kts 230°
2026-04-20 16:44 34.03562 -79.39992 40292 ft 338 kts 230°
2026-04-20 16:45 33.99879 -79.43603 40292 ft 338 kts 230°
2026-04-20 16:45 33.96213 -79.47194 40294 ft 338 kts 230°
2026-04-20 16:46 33.92545 -79.50781 40280 ft 338 kts 230°
2026-04-20 16:46 33.88906 -79.54336 40272 ft 337 kts 230°
2026-04-20 16:47 33.85163 -79.57788 40291 ft 342 kts 226°
2026-04-20 16:47 33.80988 -79.60735 40281 ft 350 kts 220°
2026-04-20 16:48 33.76630 -79.63436 40288 ft 350 kts 220°
2026-04-20 16:48 33.72363 -79.66198 40288 ft 348 kts 221°
2026-04-20 16:49 33.68337 -79.68935 40298 ft 348 kts 222°
2026-04-20 16:49 33.64103 -79.71844 40283 ft 349 kts 222°
2026-04-20 16:50 33.59844 -79.74747 40295 ft 350 kts 222°
2026-04-20 16:50 33.55563 -79.77644 40301 ft 352 kts 222°
2026-04-20 16:51 33.51282 -79.80536 40284 ft 353 kts 222°
2026-04-20 16:51 33.46963 -79.83450 40287 ft 353 kts 222°
2026-04-20 16:52 33.42655 -79.86357 40279 ft 354 kts 222°
2026-04-20 16:52 33.38328 -79.89274 40286 ft 354 kts 222°
2026-04-20 16:53 33.34008 -79.92182 40293 ft 354 kts 223°
2026-04-20 16:53 33.29668 -79.95100 40298 ft 355 kts 223°
2026-04-20 16:54 33.25330 -79.98014 40299 ft 355 kts 223°
2026-04-20 16:54 33.21010 -80.00912 40296 ft 355 kts 223°
2026-04-20 16:55 33.16674 -80.03817 40305 ft 355 kts 223°
2026-04-20 16:55 33.12294 -80.06760 39739 ft 363 kts 223°
2026-04-20 16:56 33.10072 -80.08251 39283 ft 363 kts 223°
2026-04-20 16:56 33.07845 -80.09737 38851 ft 363 kts 223°
2026-04-20 16:56 33.05640 -80.11204 38375 ft 364 kts 224°
2026-04-20 16:56 33.03390 -80.12706 37733 ft 368 kts 224°
2026-04-20 16:57 33.01159 -80.14198 37135 ft 370 kts 224°
2026-04-20 16:57 32.98895 -80.15710 36524 ft 371 kts 224°
2026-04-20 16:57 32.96666 -80.17193 35882 ft 371 kts 224°
2026-04-20 16:57 32.94396 -80.18700 35292 ft 370 kts 224°
2026-04-20 16:58 32.92112 -80.20216 34724 ft 370 kts 224°
2026-04-20 16:58 32.89872 -80.21703 34165 ft 370 kts 224°
2026-04-20 16:58 32.87653 -80.23177 33588 ft 369 kts 224°
2026-04-20 16:58 32.85408 -80.24665 32962 ft 365 kts 224°
2026-04-20 16:59 32.83189 -80.26134 32336 ft 362 kts 223°
2026-04-20 16:59 32.80984 -80.27594 31709 ft 359 kts 223°
2026-04-20 16:59 32.78828 -80.29022 31088 ft 357 kts 223°
2026-04-20 16:59 32.76643 -80.30472 30454 ft 355 kts 222°
2026-04-20 17:00 32.72344 -80.33322 29204 ft 350 kts 221°
2026-04-20 17:00 32.70220 -80.34728 28577 ft 348 kts 221°
2026-04-20 17:00 32.68124 -80.36117 27960 ft 346 kts 221°
2026-04-20 17:01 32.66009 -80.37514 27323 ft 340 kts 220°
2026-04-20 17:01 32.63971 -80.38856 26695 ft 334 kts 220°
2026-04-20 17:01 32.61946 -80.40192 26066 ft 328 kts 220°
2026-04-20 17:01 32.59963 -80.41502 25438 ft 324 kts 220°
2026-04-20 17:02 32.58007 -80.42793 24806 ft 321 kts 220°
2026-04-20 17:02 32.56045 -80.44089 24151 ft 318 kts 220°
2026-04-20 17:02 32.54159 -80.45334 23518 ft 316 kts 219°
2026-04-20 17:02 32.52210 -80.46619 22874 ft 314 kts 219°
2026-04-20 17:03 32.50290 -80.47884 22234 ft 312 kts 219°
2026-04-20 17:03 32.48399 -80.49129 21606 ft 311 kts 219°
2026-04-20 17:03 32.46498 -80.50379 20972 ft 309 kts 218°
2026-04-20 17:03 32.44609 -80.51621 20344 ft 307 kts 218°
2026-04-20 17:04 32.42731 -80.52855 19708 ft 305 kts 218°
2026-04-20 17:04 32.40863 -80.54082 19076 ft 303 kts 218°
2026-04-20 17:04 32.39008 -80.55300 18444 ft 302 kts 218°
2026-04-20 17:04 32.37171 -80.56517 17813 ft 300 kts 219°
2026-04-20 17:05 32.35441 -80.57886 17173 ft 294 kts 225°
2026-04-20 17:05 32.33832 -80.59383 16538 ft 293 kts 227°
2026-04-20 17:05 32.32255 -80.60875 15909 ft 291 kts 226°
2026-04-20 17:05 32.30672 -80.62342 15267 ft 282 kts 226°
2026-04-20 17:06 32.29102 -80.63769 14613 ft 275 kts 225°
2026-04-20 17:06 32.27596 -80.65125 13983 ft 269 kts 225°
2026-04-20 17:06 32.26268 -80.66317 13421 ft 266 kts 225°
2026-04-20 17:06 32.24808 -80.67627 12797 ft 263 kts 225°
2026-04-20 17:07 32.23315 -80.68965 12158 ft 262 kts 224°
2026-04-20 17:07 32.21822 -80.70243 11527 ft 263 kts 220°
2026-04-20 17:07 32.20177 -80.71278 10907 ft 266 kts 212°
2026-04-20 17:07 32.18501 -80.72283 10297 ft 264 kts 212°
2026-04-20 17:08 32.16811 -80.73021 10141 ft 249 kts 204°
2026-04-20 17:08 32.15196 -80.73593 10108 ft 229 kts 202°
2026-04-20 17:08 32.13684 -80.74082 10105 ft 211 kts 202°
2026-04-20 17:08 32.12252 -80.74531 9748 ft 214 kts 202°
2026-04-20 17:09 32.10801 -80.74998 9274 ft 222 kts 201°
2026-04-20 17:09 32.09280 -80.75517 8779 ft 229 kts 202°
2026-04-20 17:09 32.07732 -80.76070 8285 ft 233 kts 202°
2026-04-20 17:09 32.06175 -80.76649 7805 ft 237 kts 202°
2026-04-20 17:10 32.04573 -80.77215 7306 ft 242 kts 194°
2026-04-20 17:10 32.02848 -80.77228 6819 ft 246 kts 176°
2026-04-20 17:10 32.01150 -80.77003 6333 ft 249 kts 173°
2026-04-20 17:10 31.99392 -80.76723 5847 ft 254 kts 172°
2026-04-20 17:11 31.97639 -80.76444 5352 ft 252 kts 172°
2026-04-20 17:11 31.95904 -80.76180 4858 ft 250 kts 173°
2026-04-20 17:11 31.94203 -80.76471 4348 ft 248 kts 206°
2026-04-20 17:11 31.92969 -80.77791 3861 ft 241 kts 241°
2026-04-20 17:12 31.92588 -80.79665 3363 ft 233 kts 277°
2026-04-20 17:12 31.93155 -80.81389 2884 ft 224 kts 306°
2026-04-20 17:12 31.94071 -80.82883 2381 ft 222 kts 315°
2026-04-20 17:12 31.95247 -80.84018 2101 ft 209 kts 327°
2026-04-20 17:13 31.96530 -80.84618 1997 ft 186 kts
2026-04-20 17:13 31.97738 -80.84310 2013 ft 173 kts 22°
2026-04-20 17:13 31.98807 -80.83645 2027 ft 177 kts 32°
2026-04-20 17:13 31.99898 -80.82835 2032 ft 187 kts 32°
2026-04-20 17:14 32.01057 -80.82042 2031 ft 197 kts 29°
2026-04-20 17:14 32.02300 -80.81278 2033 ft 207 kts 27°
2026-04-20 17:14 32.03642 -80.80502 2031 ft 215 kts 26°
2026-04-20 17:14 32.05016 -80.79726 2031 ft 219 kts 26°
2026-04-20 17:15 32.06337 -80.78979 2009 ft 198 kts 26°
2026-04-20 17:15 32.07510 -80.78313 2006 ft 178 kts 26°
2026-04-20 17:15 32.08586 -80.77699 2017 ft 160 kts 26°
2026-04-20 17:15 32.09552 -80.77146 2035 ft 150 kts 27°
2026-04-20 17:16 32.10505 -80.76598 2023 ft 150 kts 26°
2026-04-20 17:16 32.11455 -80.76052 2023 ft 149 kts 27°
2026-04-20 17:16 32.12387 -80.75519 2017 ft 148 kts 26°
2026-04-20 17:16 32.13350 -80.74967 1921 ft 152 kts 26°
2026-04-20 17:17 32.14306 -80.74416 1643 ft 147 kts 27°
2026-04-20 17:17 32.15210 -80.73898 1463 ft 139 kts 27°
2026-04-20 17:17 32.16073 -80.73403 1281 ft 135 kts 28°
2026-04-20 17:17 32.16912 -80.72921 1112 ft 127 kts 28°
2026-04-20 17:18 32.17651 -80.72497 946 ft 109 kts 28°
2026-04-20 17:18 32.18299 -80.72124 794 ft 98 kts 29°
2026-04-20 17:18 32.18895 -80.71783 676 ft 91 kts 28°
2026-04-20 17:18 32.19482 -80.71439 576 ft 94 kts 30°
2026-04-20 17:19 32.20090 -80.71089 482 ft 97 kts 31°
2026-04-20 17:19 32.20689 -80.70716 386 ft 98 kts 29°
2026-04-20 17:19 32.21354 -80.70375 168 ft 108 kts 31°
2026-04-20 17:19 32.22007 -80.69997 19 ft 94 kts 31°
2026-04-20 17:20 32.22526 -80.69696 13 ft 70 kts 26°
2026-04-20 17:20 32.22850 -80.69515 13 ft 31 kts 26°
2026-04-20 17:20 32.22956 -80.69444 13 ft 4 kts 78°
2026-04-20 17:20 32.22950 -80.69414 13 ft 3 kts 112°
2026-04-20 17:21 32.22938 -80.69383 13 ft 6 kts 114°
2026-04-20 17:21 32.22899 -80.69377 13 ft 8 kts 209°
2026-04-20 17:21 32.22820 -80.69421 13 ft 15 kts 205°
2026-04-20 17:21 32.22702 -80.69488 13 ft 20 kts 206°
2026-04-20 17:22 32.22578 -80.69559 13 ft 18 kts 206°
2026-04-20 17:22 32.22464 -80.69624 13 ft 17 kts 206°
2026-04-20 17:22 32.22356 -80.69685 13 ft 16 kts 204°
2026-04-20 17:22 32.22255 -80.69745 13 ft 15 kts 206°
2026-04-20 17:23 32.22186 -80.69761 13 ft 6 kts 121°
2026-04-20 17:23 32.22169 -80.69740 13 ft 2 kts 180°
2026-04-20 17:23 32.22156 -80.69748 13 ft 1 kts 202°
2026-04-20 17:23 32.22145 -80.69753 13 ft 1 kts 205°
2026-04-20 17:24 32.22142 -80.69755 13 ft 0 kts 205°